NOAA 17 DEB, 48749

Orbit data source: Space-Track

NOAA 17 DEB, 48749 is space debris in SSO originally from a launch on Mon, 24 Jun 2002 UTC launched from the Air Force Western Test Range (AFWTR). Debris objects in space refer to the collection of defunct objects orbiting the Earth. Examples of debris include non-operational satellites, rocket bodies, and fragments generated from explosions, collisions, or faulty payload assembly.

Loading next visibility...
Identifier
48749, 2002-032CJ
Orbit
SSO
Country
Flag of USUS
Related business
Manufacturer
Unknown
Mission
Spacecraft
Bus & Motor
Unknown
Mass
Unknown
Launch date (UTC)
2002-06-24 (23 years ago)
Launch vehicle
Unknown
Launch site
Air Force Western Test Range (AFWTR)
Object type
Payload
Rocket body
Debris
Shape & HBR
Unknown shape, 0.1 m
Radar Cross Section
Small (<0.1 m²)

Expand to show TLE details & history
Last TLE update: 19 hours ago

TLE from 19 hours ago
0 NOAA 17 DEB
1 48749U 02032CJ  25349.23163433  .00010624  00000-0  19970-2 0  9998
2 48749  98.7052 331.3812 0007069  67.9730 292.2221 14.64825709247368
Epoch: 2025-12-15T05:33Z
TLE epoch observation values (Epoch: 2025-12-15T05:33:33.206Z)
Latitude
-0.00005°
Longitude
163.85969°
Altitude
678.727 km
Speed
7.518 km/s
True Right ascension
22h 05m 31s
True Declination
0° 00' 00"
Sunlit
Object was in daylight at epoch
Visualization orbit readout
Latitude
Unknown
Longitude
Unknown
Altitude
Unknown
Speed
Unknown
Apparent Right ascension
Unknown
Apparent Declination
Unknown
Sunlit
N/A
Visualization observer readout
Local Sidereal Time
22:46:46
Azimuth
Unknown
Elevation
Unknown
Doppler factor
Unknown
Orbital elements
Apogee altitude
679.719 km
Perigee altitude
669.748 km
Semi-major axis
7,052.871 km
Eccentricity
0.00071
Inclination
98.7052°
RAAN
331.3812°
Arg. of periapsis
67.973°
True anomaly
292.14709°
Mean anomaly
292.2221°
Eccentric anomaly
292.1846°
Mean motion
3.66433 °/min
Orbital period
98.24 mins
BSTAR
0.001997
Loading maneuver chart data...
Computing Atmospheric mass density...

Documentation

Showing up to 5 results
|